Greeley, CO

12:58 PM MDT on March 29, 2017 (GMT -0600)
Greeley-Weld County

Weather History for KGXY - April, 2013

Change the Weather History Date:

Thursday, April 18, 2013

  Actual Average Record
Temperature  
Mean Temperature 24 °F -  
Max Temperature 35 °F - 85 °F (1987)
Min Temperature 12 °F - 12 °F (2013)
Degree Days  
Heating Degree Days 42    
Month to date heating degree days  
Cooling Degree Days 0    
Month to date cooling degree days  
Moisture  
Dew Point 13 °F    
Average Humidity 61    
Maximum Humidity 73    
Minimum Humidity 52    
Precipitation  
Precipitation 0.00 in - 0.55 in (1970)
Sea Level Pressure  
Sea Level Pressure 30.09 in    
Wind  
Wind Speed 4 mph (NNW)    
Max Wind Speed 29 mph    
Max Gust Speed 36 mph    
Visibility 10 miles    
Events      
T = Trace of Precipitation, MM = Missing Value Source: NWS Daily Summary

Daily Weather History Graph

Daily Weather History Graph

Search for Another Location

Airport or City:

Trip Planner

Search our weather history database for the weather conditions in past years. The results will help you decide how hot, cold, wet, or windy it might be!

Date:

Astronomy

Apr. 18, 2013 Rise Set
Actual Time 6:15 AM MDT 7:41 PM MDT
Civil Twilight 5:46 AM MDT 8:09 PM MDT
Nautical Twilight 5:12 AM MDT 8:43 PM MDT
Astronomical Twilight 4:36 AM MDT 9:20 PM MDT
Moon 12:29 PM MDT (4/18) 1:57 AM MDT (4/18)
Length of Visible Light 14h 22m
Length of Day
13h 25m
First Quarter, 52% of the Moon is Illuminated
Apr 18
First Quarter
Apr 25
Full
May 2
Last Quarter
May 9
New
May 17
First Quarter

Hourly Weather History & Observations

Time (MDT) Temp. Windchill Dew Point Humidity Pressure Visibility Wind Dir Wind Speed Gust Speed Precip Events Conditions
12:15 AM 21.2 °F - 12.2 °F 68% 30.11 in 10.0 mi Calm Calm - N/A   Overcast
12:35 AM 21.2 °F - 12.2 °F 68% 30.11 in 10.0 mi Calm Calm - N/A   Overcast
12:55 AM 19.4 °F - 10.4 °F 68% 30.11 in 10.0 mi Calm Calm - N/A   Overcast
1:15 AM 19.4 °F - 10.4 °F 68% 30.11 in 10.0 mi Calm Calm - N/A   Scattered Clouds
1:35 AM 19.4 °F - 8.6 °F 63% 30.11 in 10.0 mi Calm Calm - N/A   Partly Cloudy
1:55 AM 17.6 °F - 8.6 °F 68% 30.11 in 10.0 mi Calm Calm - N/A   Scattered Clouds
2:15 AM 17.6 °F - 8.6 °F 68% 30.10 in 10.0 mi Calm Calm - N/A   Overcast
2:35 AM 17.6 °F - 8.6 °F 68% 30.10 in 10.0 mi Calm Calm - N/A   Overcast
2:55 AM 17.6 °F - 8.6 °F 68% 30.09 in 10.0 mi Calm Calm - N/A   Overcast
3:15 AM 17.6 °F - 8.6 °F 68% 30.09 in 10.0 mi Calm Calm - N/A   Mostly Cloudy
3:35 AM 15.8 °F - 6.8 °F 68% 30.10 in 10.0 mi Calm Calm - N/A   Overcast
3:55 AM 15.8 °F - 6.8 °F 68% 30.10 in 10.0 mi Calm Calm - N/A   Overcast
4:15 AM 15.8 °F - 6.8 °F 68% 30.10 in 10.0 mi Calm Calm - N/A   Mostly Cloudy
4:35 AM 15.8 °F - 5.0 °F 62% 30.09 in 10.0 mi Calm Calm - N/A   Mostly Cloudy
4:55 AM 14.0 °F - 3.2 °F 62% 30.09 in 10.0 mi Calm Calm - N/A   Clear
5:15 AM 12.2 °F - 3.2 °F 67% 30.09 in 10.0 mi Calm Calm - N/A   Clear
5:35 AM 14.0 °F - 3.2 °F 62% 30.09 in 10.0 mi Calm Calm - N/A   Scattered Clouds
5:55 AM 14.0 °F - 6.8 °F 73% 30.09 in 10.0 mi Calm Calm - N/A   Mostly Cloudy
6:15 AM 17.6 °F - 8.6 °F 68% 30.09 in 10.0 mi Calm Calm - N/A   Scattered Clouds
6:35 AM 19.4 °F - 8.6 °F 63% 30.09 in 10.0 mi Calm Calm - N/A   Partly Cloudy
6:55 AM 19.4 °F - 8.6 °F 63% 30.10 in 10.0 mi Calm Calm - N/A   Scattered Clouds
7:15 AM 19.4 °F - 8.6 °F 63% 30.11 in 10.0 mi Calm Calm - N/A   Mostly Cloudy
7:35 AM 19.4 °F - 8.6 °F 63% 30.11 in 10.0 mi Calm Calm - N/A   Overcast
7:55 AM 21.2 °F - 10.4 °F 63% 30.11 in 10.0 mi Calm Calm - N/A   Overcast
8:35 AM 23.0 °F - 12.2 °F 63% 30.11 in 10.0 mi Calm Calm - N/A   Overcast
8:55 AM 24.8 °F - 12.2 °F 59% 30.11 in 10.0 mi Calm Calm - N/A   Overcast
9:15 AM 24.8 °F - 12.2 °F 59% 30.10 in 10.0 mi Calm Calm - N/A   Overcast
9:35 AM 26.6 °F - 12.2 °F 55% 30.10 in 10.0 mi Calm Calm - N/A   Overcast
9:55 AM 26.6 °F - 12.2 °F 55% 30.10 in 10.0 mi Calm Calm - N/A   Unknown
10:15 AM 26.6 °F - 12.2 °F 55% 30.09 in 10.0 mi Calm Calm - N/A   Scattered Clouds
10:35 AM 28.4 °F - 14.0 °F 55% 30.10 in 10.0 mi Calm Calm - N/A   Scattered Clouds
10:55 AM 28.4 °F - 14.0 °F 55% 30.09 in 10.0 mi Calm Calm - N/A   Scattered Clouds
11:15 AM 28.4 °F - 14.0 °F 55% 30.10 in 10.0 mi Calm Calm - N/A   Partly Cloudy
11:35 AM 30.2 °F - 15.8 °F 55% 30.09 in 10.0 mi Calm Calm - N/A   Clear
11:55 AM 28.4 °F - 15.8 °F 59% 30.09 in 10.0 mi Calm Calm - N/A   Partly Cloudy
12:35 PM 28.4 °F - 15.8 °F 59% 30.08 in 10.0 mi Calm Calm - N/A   Scattered Clouds
12:55 PM 30.2 °F - 17.6 °F 60% 30.07 in 10.0 mi Calm Calm - N/A   Partly Cloudy
1:15 PM 30.2 °F 15.7 °F 17.6 °F 60% 30.07 in 10.0 mi North 27.6 mph - N/A   Partly Cloudy
1:35 PM 32.0 °F 18.1 °F 17.6 °F 55% 30.07 in 10.0 mi North 27.6 mph - N/A   Clear
1:55 PM 32.0 °F 18.4 °F 17.6 °F 55% 30.06 in 10.0 mi North 26.5 mph - N/A   Clear
2:35 PM 33.8 °F 20.8 °F 19.4 °F 56% 30.06 in 10.0 mi North 26.5 mph 31.1 mph N/A   Clear
2:55 PM 33.8 °F 21.0 °F 19.4 °F 56% 30.05 in 10.0 mi North 25.3 mph 31.1 mph N/A   Clear
3:15 PM 33.8 °F 20.3 °F 19.4 °F 56% 30.05 in 10.0 mi North 28.8 mph 35.7 mph N/A   Clear
3:55 PM 35.6 °F 23.0 °F 19.4 °F 52% 30.06 in 10.0 mi North 27.6 mph 33.4 mph N/A   Clear
4:15 PM 35.6 °F 23.4 °F 21.2 °F 56% 30.06 in 10.0 mi North 25.3 mph - N/A   Clear
4:35 PM 35.6 °F 23.4 °F 19.4 °F 52% 30.06 in 10.0 mi North 25.3 mph - N/A   Clear
5:35 PM 35.6 °F 24.5 °F 21.2 °F 56% 30.08 in 10.0 mi North 20.7 mph 26.5 mph N/A   Clear
5:55 PM 35.6 °F 25.9 °F 21.2 °F 56% 30.08 in 10.0 mi NNW 16.1 mph - N/A   Clear
6:15 PM 33.8 °F 23.5 °F 21.2 °F 60% 30.09 in 10.0 mi North 16.1 mph - N/A   Clear
6:35 PM 33.8 °F 24.3 °F 21.2 °F 60% 30.09 in 10.0 mi North 13.8 mph - N/A   Clear
7:15 PM 33.8 °F 23.2 °F 19.4 °F 56% 30.08 in 10.0 mi North 17.3 mph - N/A   Clear
7:35 PM 32.0 °F 21.2 °F 17.6 °F 55% 30.08 in 10.0 mi North 16.1 mph - N/A   Clear
7:55 PM 30.2 °F 19.8 °F 19.4 °F 64% 30.09 in 10.0 mi West 13.8 mph - N/A   Clear
8:15 PM 32.0 °F 24.2 °F 17.6 °F 55% 30.11 in 10.0 mi NW 9.2 mph - N/A   Clear
9:35 PM 28.4 °F 22.2 °F 15.8 °F 59% 30.13 in 10.0 mi NW 5.8 mph - N/A   Clear
9:55 PM 28.4 °F 23.3 °F 15.8 °F 59% 30.13 in 10.0 mi NW 4.6 mph - N/A   Clear
10:15 PM 26.6 °F 22.6 °F 15.8 °F 64% 30.13 in 10.0 mi North 3.5 mph - N/A   Clear
10:35 PM 26.6 °F - 15.8 °F 64% 30.13 in 10.0 mi Calm Calm - N/A   Clear
10:55 PM 28.4 °F 22.2 °F 15.8 °F 59% 30.13 in 10.0 mi West 5.8 mph - N/A   Partly Cloudy
11:15 PM 28.4 °F 23.3 °F 17.6 °F 64% 30.12 in 10.0 mi WNW 4.6 mph - N/A   Clear
11:55 PM 28.4 °F 22.2 °F 15.8 °F 59% 30.11 in 10.0 mi West 5.8 mph - N/A   Partly Cloudy